FENGYUN 1C DEB

Last updated on Tue Sep 15 2026 00:02:38 GMT+0000 (Coordinated Universal Time)

1 49389U 99025FCJ 26249.28824850 .00002158 00000+0 13472-2 0 9992 2 49389 98.7228 72.5643 0134129 163.6467 196.9090 14.01403253265944
UTC large
Height (km)
Speed (km/s)
/
Latitude / Longitude
Inclination (degrees)
Orbital Period (minutes)
Azimuth
Elevation
Range (km)
Doppler Factor

Next 0 passes for location: London (51.5072 / 0.1276)

No passes found over London.
FENGYUN 1C DEB